QPF
0.06 0.07 0.09 0.10 0.08 0.06 0.06 0.06 0.05 0.07 0.07 0.04 0.03 0.02 0.02 0.01 0.01 0.02 0.03 0.02 0.03 0.03 0.04 0.04 0.03 0.03 0.03 0.05 0.06 0.05 0.06 0.05 0.05 0.03 0.02 0.02 0.02 0.02 0.02 0.03 0.03 0.04 0.03
0.04 0.04 0.05 0.07 0.06 0.06 0.05 0.05 0.06 0.08 0.07 0.06 0.04 0.02 0.02 0.02 0.02 0.04 0.04 0.03 0.02 0.02 0.03 0.04 0.05 0.04 0.04 0.04 0.05 0.05 0.04 0.05 0.05 0.05 0.03 0.02 0.02 0.02 0.02 0.02 0.03 0.03 0.03
0.05 0.05 0.05 0.04 0.04 0.04 0.04 0.04 0.05 0.07 0.06 0.05 0.05 0.03 0.03 0.03 0.02 0.03 0.04 0.04 0.03 0.02 0.02 0.03 0.05 0.05 0.06 0.06 0.06 0.06 0.06 0.05 0.04 0.04 0.03 0.02 0.02 0.02 0.02 0.02 0.02 0.03 0.03
0.04 0.05 0.05 0.05 0.04 0.03 0.03 0.05 0.06 0.07 0.07 0.06 0.06 0.05 0.03 0.04 0.03 0.03 0.03 0.05 0.05 0.05 0.04 0.03 0.04 0.04 0.06 0.08 0.10 0.12 0.11 0.08 0.06 0.04 0.04 0.03 0.03 0.03 0.02 0.02 0.02 0.03 0.03
0.05 0.06 0.06 0.06 0.04 0.04 0.05 0.06 0.07 0.08 0.08 0.09 0.07 0.06 0.04 0.04 0.05 0.03 0.04 0.04 0.04 0.05 0.06 0.04 0.03 0.03 0.04 0.07 0.10 0.11 0.12 0.11 0.08 0.07 0.07 0.06 0.05 0.05 0.04 0.03 0.04 0.03 0.03
0.06 0.07 0.07 0.06 0.05 0.04 0.07 0.08 0.10 0.10 0.09 0.10 0.05 0.05 0.05 0.05 0.04 0.03 0.04 0.03 0.03 0.02 0.03 0.05 0.08 0.05 0.03 0.04 0.07 0.08 0.12 0.13 0.13 0.11 0.09 0.07 0.06 0.06 0.05 0.03 0.03 0.03 0.03
0.08 0.08 0.08 0.08 0.06 0.05 0.06 0.06 0.07 0.08 0.07 0.09 0.09 0.08 0.05 0.04 0.03 0.03 0.02 0.02 0.02 0.02 0.02 0.05 0.07 0.09 0.08 0.04 0.03 0.04 0.07 0.11 0.13 0.12 0.10 0.08 0.07 0.07 0.06 0.03 0.03 0.03 0.03
0.05 0.05 0.09 0.08 0.06 0.06 0.06 0.05 0.06 0.07 0.07 0.08 0.10 0.08 0.07 0.06 0.03 0.02 0.01 0.02 0.03 0.03 0.02 0.03 0.05 0.08 0.07 0.08 0.05 0.03 0.05 0.06 0.08 0.10 0.09 0.08 0.07 0.07 0.07 0.06 0.05 0.04 0.03
0.04 0.06 0.06 0.07 0.07 0.05 0.07 0.08 0.08 0.09 0.10 0.09 0.08 0.09 0.09 0.08 0.05 0.03 0.01 0.01 0.02 0.03 0.03 0.03 0.02 0.03 0.05 0.09 0.08 0.05 0.03 0.04 0.05 0.08 0.08 0.08 0.08 0.08 0.07 0.06 0.05 0.04 0.04
0.05 0.06 0.05 0.07 0.09 0.07 0.08 0.08 0.07 0.11 0.11 0.11 0.09 0.09 0.09 0.09 0.08 0.06 0.05 0.02 0.01 0.01 0.02 0.03 0.03 0.03 0.06 0.07 0.06 0.04 0.02 0.02 0.04 0.06 0.08 0.09 0.08 0.06 0.04 0.04 0.05 0.06 0.06
0.05 0.03 0.04 0.05 0.07 0.07 0.07 0.07 0.09 0.10 0.10 0.11 0.12 0.10 0.08 0.08 0.07 0.07 0.07 0.06 0.03 0.02 0.03 0.04 0.04 0.05 0.03 0.03 0.06 0.05 0.02 0.01 0.02 0.02 0.04 0.06 0.06 0.05 0.05 0.05 0.06 0.09 0.10
0.06 0.06 0.05 0.05 0.06 0.06 0.07 0.08 0.08 0.08 0.09 0.10 0.11 0.09 0.09 0.10 0.09 0.09 0.08 0.07 0.06 0.04 0.03 0.03 0.03 0.04 0.03 0.03 0.03 0.02 0.01 0.01 0.02 0.02 0.02 0.03 0.04 0.05 0.08 0.09 0.09 0.09 0.10
0.07 0.07 0.07 0.09 0.08 0.07 0.06 0.07 0.07 0.08 0.06 0.07 0.09 0.09 0.08 0.08 0.09 0.10 0.09 0.07 0.05 0.04 0.03 0.03 0.03 0.04 0.04 0.04 0.03 0.01 0.01 0.01 0.01 0.02 0.02 0.03 0.05 0.07 0.10 0.11 0.11 0.10 0.10
0.05 0.06 0.06 0.08 0.07 0.05 0.05 0.07 0.06 0.06 0.05 0.07 0.07 0.09 0.08 0.06 0.06 0.07 0.09 0.09 0.07 0.06 0.05 0.04 0.04 0.05 0.05 0.05 0.05 0.04 0.03 0.02 0.02 0.02 0.03 0.04 0.06 0.08 0.08 0.07 0.06 0.07 0.09
0.04 0.04 0.05 0.05 0.05 0.05 0.07 0.07 0.06 0.04 0.05 0.07 0.07 0.08 0.07 0.06 0.05 0.05 0.06 0.10 0.10 0.08 0.06 0.05 0.05 0.05 0.05 0.08 0.08 0.06 0.06 0.05 0.04 0.03 0.04 0.06 0.07 0.06 0.06 0.05 0.06 0.08 0.08
0.04 0.04 0.04 0.04 0.04 0.05 0.07 0.07 0.05 0.04 0.04 0.06 0.06 0.06 0.06 0.07 0.07 0.07 0.07 0.08 0.09 0.10 0.08 0.05 0.06 0.06 0.06 0.07 0.08 0.06 0.06 0.07 0.06 0.04 0.03 0.03 0.04 0.06 0.08 0.08 0.06 0.06 0.05
0.03 0.04 0.05 0.05 0.04 0.05 0.06 0.06 0.05 0.05 0.05 0.05 0.05 0.05 0.06 0.07 0.09 0.08 0.08 0.08 0.08 0.10 0.10 0.07 0.06 0.05 0.06 0.07 0.06 0.07 0.07 0.07 0.07 0.06 0.05 0.05 0.05 0.05 0.06 0.05 0.05 0.05 0.05
0.03 0.04 0.05 0.05 0.04 0.05 0.04 0.04 0.05 0.05 0.06 0.05 0.05 0.05 0.05 0.05 0.05 0.05 0.06 0.07 0.08 0.09 0.09 0.08 0.07 0.05 0.07 0.07 0.05 0.04 0.04 0.05 0.07 0.11 0.10 0.09 0.09 0.07 0.06 0.05 0.05 0.05 0.05
0.03 0.03 0.04 0.05 0.06 0.06 0.05 0.04 0.03 0.04 0.04 0.04 0.04 0.05 0.05 0.06 0.05 0.04 0.05 0.07 0.08 0.09 0.09 0.09 0.09 0.09 0.08 0.07 0.06 0.05 0.04 0.04 0.04 0.05 0.08 0.08 0.07 0.06 0.06 0.05 0.05 0.05 0.04
0.03 0.03 0.03 0.04 0.05 0.06 0.07 0.08 0.07 0.05 0.03 0.03 0.03 0.03 0.03 0.03 0.04 0.05 0.04 0.04 0.06 0.06 0.06 0.07 0.07 0.07 0.09 0.10 0.09 0.08 0.06 0.06 0.05 0.05 0.05 0.05 0.04 0.04 0.04 0.03 0.04 0.04 0.03
0.04 0.04 0.04 0.04 0.04 0.05 0.06 0.08 0.08 0.07 0.05 0.04 0.04 0.03 0.02 0.02 0.02 0.03 0.03 0.04 0.04 0.04 0.04 0.05 0.06 0.06 0.07 0.09 0.08 0.07 0.06 0.06 0.05 0.05 0.05 0.05 0.04 0.03 0.04 0.04 0.03 0.03 0.04
0.04 0.04 0.04 0.04 0.04 0.04 0.05 0.06 0.06 0.07 0.05 0.04 0.04 0.04 0.03 0.02 0.02 0.03 0.03 0.04 0.05 0.05 0.06 0.07 0.07 0.08 0.08 0.07 0.07 0.06 0.06 0.05 0.03 0.02 0.02 0.04 0.04 0.04 0.04 0.04 0.04 0.03 0.03
0.03 0.03 0.03 0.04 0.05 0.04 0.03 0.03 0.04 0.05 0.05 0.03 0.03 0.03 0.03 0.02 0.03 0.03 0.04 0.05 0.06 0.07 0.07 0.07 0.08 0.07 0.07 0.05 0.05 0.05 0.04 0.03 0.03 0.03 0.03 0.03 0.03 0.03 0.03 0.04 0.04 0.03 0.03
0.06 0.05 0.06 0.05 0.04 0.02 0.02 0.02 0.03 0.04 0.04 0.04 0.03 0.04 0.04 0.03 0.04 0.04 0.07 0.08 0.08 0.08 0.07 0.05 0.04 0.03 0.03 0.03 0.03 0.03 0.03 0.03 0.03 0.02 0.02 0.02 0.02 0.02 0.02 0.02 0.03 0.03 0.03
0.05 0.04 0.03 0.03 0.03 0.02 0.03 0.04 0.05 0.05 0.06 0.06 0.04 0.03 0.03 0.03 0.03 0.03 0.04 0.05 0.05 0.04 0.04 0.04 0.03 0.03 0.03 0.02 0.02 0.02 0.03 0.03 0.02 0.02 0.02 0.02 0.02 0.02 0.02 0.02 0.03 0.03 0.04
0.07 0.07 0.06 0.06 0.05 0.05 0.06 0.08 0.08 0.07 0.08 0.07 0.05 0.04 0.03 0.02 0.02 0.02 0.01 0.02 0.03 0.03 0.02 0.02 0.02 0.02 0.02 0.02 0.02 0.01 0.02 0.02 0.02 0.02 0.02 0.02 0.02 0.02 0.03 0.03 0.03 0.03 0.04
MSLP
1014.09 1014.32 1014.60 1014.92 1015.31 1015.75 1016.21 1016.67 1017.05 1017.33 1017.46 1017.45 1017.33 1017.14 1016.96 1016.87 1016.92 1017.14 1017.52 1018.02 1018.56 1019.08 1019.52 1019.84 1020.04 1020.13 1020.17 1020.21 1020.27 1020.39 1020.56 1020.75 1020.95 1021.12 1021.24 1021.29 1021.30 1021.28 1021.26 1021.26 1021.29 1021.36 1021.46
1014.14 1014.43 1014.76 1015.14 1015.56 1016.01 1016.47 1016.90 1017.25 1017.49 1017.58 1017.53 1017.38 1017.16 1016.96 1016.84 1016.84 1017.01 1017.33 1017.77 1018.25 1018.73 1019.16 1019.48 1019.70 1019.84 1019.93 1020.02 1020.13 1020.28 1020.47 1020.68 1020.89 1021.05 1021.17 1021.22 1021.22 1021.19 1021.16 1021.14 1021.16 1021.21 1021.28
1014.27 1014.60 1014.97 1015.37 1015.81 1016.26 1016.70 1017.11 1017.43 1017.63 1017.70 1017.63 1017.46 1017.23 1017.00 1016.84 1016.80 1016.89 1017.13 1017.48 1017.89 1018.31 1018.69 1019.01 1019.25 1019.44 1019.58 1019.72 1019.88 1020.06 1020.27 1020.49 1020.69 1020.85 1020.95 1020.99 1020.98 1020.95 1020.91 1020.88 1020.88 1020.91 1020.97
1014.43 1014.77 1015.14 1015.55 1015.98 1016.43 1016.85 1017.23 1017.53 1017.71 1017.77 1017.71 1017.54 1017.31 1017.07 1016.88 1016.77 1016.79 1016.93 1017.17 1017.49 1017.83 1018.16 1018.45 1018.70 1018.92 1019.11 1019.29 1019.49 1019.70 1019.92 1020.13 1020.32 1020.45 1020.53 1020.56 1020.54 1020.50 1020.46 1020.44 1020.44 1020.47 1020.51
1014.54 1014.86 1015.22 1015.62 1016.03 1016.45 1016.86 1017.22 1017.50 1017.69 1017.76 1017.72 1017.57 1017.36 1017.13 1016.92 1016.77 1016.71 1016.75 1016.88 1017.08 1017.33 1017.58 1017.84 1018.08 1018.31 1018.52 1018.74 1018.96 1019.19 1019.40 1019.59 1019.75 1019.85 1019.91 1019.92 1019.90 1019.86 1019.84 1019.83 1019.85 1019.89 1019.94
1014.58 1014.86 1015.19 1015.55 1015.94 1016.33 1016.72 1017.06 1017.35 1017.55 1017.65 1017.64 1017.54 1017.37 1017.16 1016.94 1016.76 1016.64 1016.59 1016.61 1016.70 1016.84 1017.01 1017.21 1017.42 1017.64 1017.86 1018.09 1018.32 1018.54 1018.74 1018.91 1019.02 1019.10 1019.12 1019.12 1019.10 1019.08 1019.08 1019.10 1019.15 1019.22 1019.29
1014.55 1014.77 1015.05 1015.38 1015.73 1016.10 1016.47 1016.80 1017.09 1017.31 1017.44 1017.48 1017.43 1017.30 1017.13 1016.93 1016.74 1016.57 1016.44 1016.37 1016.35 1016.39 1016.47 1016.60 1016.77 1016.97 1017.18 1017.41 1017.63 1017.84 1018.02 1018.15 1018.24 1018.27 1018.28 1018.26 1018.25 1018.25 1018.28 1018.34 1018.43 1018.54 1018.65
1014.45 1014.62 1014.86 1015.14 1015.47 1015.81 1016.16 1016.49 1016.78 1017.01 1017.17 1017.25 1017.25 1017.18 1017.05 1016.88 1016.69 1016.50 1016.32 1016.18 1016.07 1016.02 1016.02 1016.08 1016.19 1016.35 1016.55 1016.77 1016.98 1017.18 1017.33 1017.44 1017.50 1017.51 1017.50 1017.48 1017.47 1017.49 1017.55 1017.65 1017.79 1017.93 1018.08
1014.30 1014.44 1014.65 1014.90 1015.21 1015.53 1015.87 1016.18 1016.46 1016.69 1016.87 1016.98 1017.02 1017.00 1016.93 1016.80 1016.63 1016.44 1016.24 1016.05 1015.88 1015.75 1015.68 1015.67 1015.73 1015.86 1016.04 1016.25 1016.45 1016.65 1016.80 1016.89 1016.94 1016.94 1016.92 1016.90 1016.89 1016.93 1017.01 1017.14 1017.31 1017.48 1017.65
1014.14 1014.26 1014.45 1014.69 1014.98 1015.30 1015.61 1015.90 1016.16 1016.38 1016.56 1016.69 1016.76 1016.79 1016.77 1016.69 1016.57 1016.40 1016.20 1015.99 1015.78 1015.61 1015.48 1015.42 1015.45 1015.55 1015.71 1015.91 1016.13 1016.33 1016.49 1016.59 1016.64 1016.65 1016.63 1016.61 1016.61 1016.65 1016.75 1016.89 1017.06 1017.25 1017.42
1013.95 1014.06 1014.25 1014.50 1014.79 1015.09 1015.38 1015.65 1015.88 1016.08 1016.24 1016.37 1016.47 1016.54 1016.57 1016.56 1016.50 1016.38 1016.21 1016.01 1015.79 1015.59 1015.44 1015.35 1015.34 1015.42 1015.58 1015.79 1016.02 1016.25 1016.43 1016.57 1016.64 1016.66 1016.65 1016.64 1016.64 1016.68 1016.77 1016.89 1017.05 1017.22 1017.38
1013.71 1013.83 1014.03 1014.29 1014.57 1014.86 1015.13 1015.37 1015.57 1015.73 1015.88 1016.01 1016.14 1016.26 1016.35 1016.41 1016.43 1016.38 1016.27 1016.11 1015.91 1015.71 1015.54 1015.44 1015.41 1015.49 1015.64 1015.87 1016.12 1016.38 1016.61 1016.78 1016.89 1016.94 1016.96 1016.95 1016.95 1016.98 1017.05 1017.14 1017.27 1017.40 1017.52
1013.39 1013.53 1013.74 1014.00 1014.28 1014.56 1014.80 1015.01 1015.18 1015.33 1015.46 1015.60 1015.76 1015.93 1016.10 1016.25 1016.36 1016.40 1016.37 1016.27 1016.11 1015.93 1015.77 1015.66 1015.63 1015.70 1015.86 1016.10 1016.38 1016.67 1016.94 1017.16 1017.31 1017.40 1017.44 1017.45 1017.45 1017.46 1017.50 1017.56 1017.64 1017.72 1017.79
1013.00 1013.14 1013.35 1013.61 1013.88 1014.14 1014.37 1014.55 1014.70 1014.83 1014.97 1015.13 1015.33 1015.57 1015.82 1016.07 1016.29 1016.43 1016.49 1016.47 1016.37 1016.23 1016.09 1015.98 1015.95 1016.01 1016.17 1016.42 1016.72 1017.04 1017.34 1017.60 1017.79 1017.92 1017.98 1018.01 1018.01 1018.02 1018.03 1018.05 1018.09 1018.12 1018.13
1012.55 1012.69 1012.89 1013.13 1013.39 1013.63 1013.84 1014.01 1014.14 1014.28 1014.43 1014.63 1014.88 1015.19 1015.53 1015.89 1016.21 1016.46 1016.62 1016.67 1016.64 1016.55 1016.43 1016.33 1016.30 1016.36 1016.51 1016.75 1017.05 1017.38 1017.70 1017.99 1018.21 1018.36 1018.45 1018.50 1018.51 1018.52 1018.52 1018.53 1018.53 1018.52 1018.49
1012.12 1012.24 1012.41 1012.63 1012.86 1013.08 1013.27 1013.44 1013.57 1013.72 1013.90 1014.14 1014.45 1014.82 1015.25 1015.70 1016.12 1016.47 1016.71 1016.85 1016.88 1016.84 1016.75 1016.67 1016.64 1016.69 1016.82 1017.04 1017.33 1017.64 1017.96 1018.24 1018.47 1018.64 1018.75 1018.82 1018.85 1018.87 1018.88 1018.89 1018.89 1018.86 1018.81
1011.79 1011.88 1012.02 1012.21 1012.41 1012.61 1012.79 1012.94 1013.09 1013.25 1013.46 1013.73 1014.09 1014.52 1015.01 1015.52 1016.01 1016.43 1016.76 1016.96 1017.05 1017.05 1017.00 1016.94 1016.91 1016.94 1017.06 1017.25 1017.49 1017.77 1018.06 1018.32 1018.53 1018.70 1018.82 1018.90 1018.96 1019.01 1019.05 1019.08 1019.10 1019.09 1019.04
1011.63 1011.69 1011.80 1011.96 1012.13 1012.31 1012.48 1012.63 1012.78 1012.95 1013.17 1013.47 1013.85 1014.30 1014.82 1015.36 1015.88 1016.34 1016.71 1016.96 1017.10 1017.15 1017.14 1017.10 1017.09 1017.11 1017.21 1017.36 1017.56 1017.79 1018.02 1018.23 1018.41 1018.55 1018.66 1018.75 1018.84 1018.92 1019.00 1019.08 1019.15 1019.18 1019.17
1011.66 1011.70 1011.80 1011.93 1012.08 1012.24 1012.40 1012.54 1012.69 1012.86 1013.08 1013.37 1013.73 1014.17 1014.67 1015.20 1015.71 1016.18 1016.56 1016.84 1017.02 1017.11 1017.14 1017.14 1017.15 1017.19 1017.27 1017.40 1017.55 1017.72 1017.88 1018.03 1018.15 1018.25 1018.34 1018.42 1018.52 1018.63 1018.76 1018.90 1019.03 1019.12 1019.16
1011.86 1011.91 1011.99 1012.11 1012.25 1012.40 1012.54 1012.67 1012.81 1012.96 1013.15 1013.40 1013.72 1014.11 1014.55 1015.02 1015.49 1015.92 1016.29 1016.58 1016.79 1016.93 1017.01 1017.07 1017.13 1017.19 1017.28 1017.38 1017.50 1017.61 1017.71 1017.78 1017.84 1017.88 1017.92 1017.99 1018.08 1018.22 1018.39 1018.57 1018.76 1018.92 1019.03
1012.14 1012.21 1012.31 1012.43 1012.56 1012.70 1012.83 1012.94 1013.06 1013.18 1013.33 1013.53 1013.77 1014.08 1014.44 1014.82 1015.22 1015.60 1015.93 1016.22 1016.45 1016.64 1016.78 1016.91 1017.02 1017.14 1017.25 1017.36 1017.45 1017.52 1017.56 1017.56 1017.54 1017.52 1017.51 1017.53 1017.61 1017.75 1017.94 1018.16 1018.40 1018.62 1018.78
1012.39 1012.50 1012.62 1012.75 1012.89 1013.02 1013.14 1013.25 1013.34 1013.43 1013.53 1013.66 1013.84 1014.05 1014.31 1014.61 1014.91 1015.22 1015.52 1015.80 1016.05 1016.28 1016.49 1016.69 1016.88 1017.06 1017.22 1017.35 1017.44 1017.48 1017.47 1017.42 1017.33 1017.24 1017.17 1017.15 1017.19 1017.30 1017.49 1017.72 1017.98 1018.24 1018.45
1012.51 1012.66 1012.81 1012.96 1013.11 1013.24 1013.36 1013.46 1013.54 1013.61 1013.68 1013.77 1013.87 1014.01 1014.19 1014.39 1014.62 1014.87 1015.13 1015.39 1015.66 1015.92 1016.20 1016.47 1016.73 1016.98 1017.19 1017.36 1017.47 1017.50 1017.47 1017.37 1017.24 1017.09 1016.97 1016.89 1016.88 1016.95 1017.10 1017.32 1017.57 1017.83 1018.05
1012.41 1012.61 1012.79 1012.96 1013.13 1013.28 1013.41 1013.52 1013.61 1013.68 1013.75 1013.81 1013.89 1013.98 1014.09 1014.24 1014.41 1014.61 1014.83 1015.08 1015.35 1015.64 1015.96 1016.29 1016.61 1016.92 1017.19 1017.39 1017.53 1017.58 1017.54 1017.43 1017.26 1017.08 1016.90 1016.77 1016.71 1016.73 1016.82 1016.99 1017.20 1017.42 1017.63
1012.11 1012.35 1012.55 1012.75 1012.94 1013.11 1013.27 1013.42 1013.54 1013.65 1013.74 1013.82 1013.91 1013.99 1014.09 1014.21 1014.34 1014.51 1014.70 1014.93 1015.19 1015.49 1015.82 1016.17 1016.53 1016.88 1017.18 1017.42 1017.59 1017.66 1017.64 1017.53 1017.36 1017.16 1016.96 1016.79 1016.68 1016.63 1016.66 1016.75 1016.89 1017.05 1017.21
1011.67 1011.93 1012.17 1012.39 1012.60 1012.81 1013.02 1013.21 1013.40 1013.57 1013.72 1013.86 1013.99 1014.11 1014.22 1014.34 1014.47 1014.61 1014.78 1014.98 1015.21 1015.49 1015.80 1016.14 1016.49 1016.84 1017.15 1017.41 1017.60 1017.70 1017.70 1017.63 1017.48 1017.29 1017.08 1016.89 1016.74 1016.64 1016.59 1016.60 1016.65 1016.73 1016.82
Thickness
5754 5753 5752 5751 5753 5752 5750 5750 5750 5750 5750 5751 5753 5753 5754 5754 5755 5755 5752 5747 5745 5743 5742 5741 5740 5739 5738 5736 5735 5733 5732 5730 5729 5728 5727 5726 5724 5723 5722 5721 5720 5718 5717
5754 5754 5753 5752 5752 5752 5751 5751 5751 5750 5751 5752 5753 5754 5754 5755 5754 5753 5753 5750 5746 5745 5743 5742 5741 5740 5739 5737 5736 5734 5732 5730 5729 5728 5727 5726 5724 5723 5722 5720 5719 5718 5717
5753 5753 5753 5752 5752 5751 5750 5750 5751 5751 5751 5753 5753 5754 5755 5754 5755 5754 5754 5753 5750 5746 5744 5743 5742 5741 5739 5738 5736 5734 5732 5731 5729 5728 5727 5726 5724 5723 5721 5720 5719 5718 5716
5753 5752 5753 5753 5752 5752 5752 5752 5752 5752 5751 5752 5753 5754 5755 5754 5753 5753 5754 5753 5752 5751 5747 5744 5742 5741 5740 5738 5737 5735 5733 5731 5729 5728 5727 5725 5724 5723 5721 5720 5719 5717 5716
5753 5753 5753 5753 5752 5753 5753 5754 5753 5752 5750 5750 5752 5753 5755 5755 5753 5754 5754 5753 5752 5751 5750 5746 5743 5742 5740 5739 5737 5736 5734 5731 5729 5728 5727 5725 5724 5722 5721 5719 5718 5717 5716
5755 5755 5754 5753 5754 5754 5753 5752 5750 5750 5750 5750 5753 5753 5753 5754 5754 5754 5754 5754 5752 5751 5751 5749 5746 5743 5741 5739 5738 5736 5734 5732 5730 5728 5727 5725 5724 5723 5721 5719 5718 5717 5716
5757 5755 5757 5755 5754 5754 5752 5752 5751 5750 5750 5751 5749 5748 5751 5754 5754 5753 5754 5754 5754 5752 5750 5749 5747 5746 5743 5740 5738 5736 5734 5733 5730 5728 5727 5726 5724 5723 5721 5720 5718 5717 5715
5759 5759 5756 5756 5756 5754 5752 5752 5751 5751 5752 5752 5749 5745 5744 5747 5750 5755 5753 5752 5752 5752 5751 5750 5748 5745 5744 5743 5740 5737 5734 5732 5731 5729 5727 5726 5724 5723 5722 5720 5719 5717 5715
5760 5759 5758 5758 5757 5757 5755 5754 5753 5751 5749 5752 5752 5748 5743 5742 5746 5750 5751 5751 5751 5751 5751 5750 5748 5746 5744 5742 5740 5736 5734 5732 5730 5729 5727 5726 5724 5723 5722 5720 5718 5716 5715
5762 5761 5759 5758 5757 5758 5757 5756 5758 5754 5751 5749 5750 5751 5750 5748 5741 5742 5747 5750 5750 5748 5749 5749 5748 5746 5743 5741 5739 5735 5733 5731 5729 5728 5726 5725 5724 5723 5721 5719 5718 5716 5715
5763 5762 5760 5759 5757 5757 5757 5756 5756 5755 5754 5751 5750 5750 5749 5747 5746 5741 5739 5742 5746 5748 5748 5747 5747 5745 5743 5741 5738 5735 5731 5729 5727 5726 5725 5724 5723 5722 5721 5719 5717 5716 5714
5765 5763 5762 5760 5758 5758 5757 5756 5755 5754 5753 5752 5751 5750 5748 5745 5744 5742 5739 5738 5740 5744 5746 5745 5744 5743 5741 5739 5736 5732 5729 5726 5725 5724 5723 5722 5721 5720 5719 5717 5715 5714 5712
5766 5763 5763 5760 5759 5757 5756 5755 5754 5753 5753 5751 5749 5749 5749 5748 5747 5744 5740 5739 5738 5741 5741 5742 5741 5739 5738 5736 5733 5728 5726 5724 5722 5721 5720 5719 5718 5717 5716 5714 5712 5710 5709
5768 5765 5762 5760 5759 5758 5757 5755 5755 5753 5752 5750 5750 5748 5747 5748 5748 5745 5741 5737 5735 5736 5737 5736 5737 5736 5733 5731 5727 5724 5723 5720 5718 5717 5716 5715 5714 5713 5711 5710 5709 5707 5705
5769 5766 5763 5760 5758 5757 5756 5754 5754 5752 5751 5750 5750 5748 5747 5748 5747 5746 5744 5740 5733 5730 5730 5732 5732 5731 5729 5725 5722 5721 5719 5715 5713 5712 5711 5710 5709 5708 5706 5705 5703 5702 5700
5769 5766 5763 5761 5758 5756 5755 5752 5751 5750 5748 5747 5747 5745 5744 5746 5745 5744 5742 5740 5737 5732 5728 5730 5727 5727 5723 5722 5717 5715 5713 5710 5708 5707 5705 5704 5703 5702 5700 5698 5697 5696 5694
5769 5766 5763 5760 5758 5756 5754 5751 5750 5749 5747 5745 5745 5744 5742 5741 5741 5740 5740 5738 5735 5731 5726 5726 5725 5722 5718 5715 5713 5710 5708 5706 5704 5701 5699 5698 5696 5695 5694 5692 5690 5688 5687
5769 5766 5763 5760 5757 5755 5753 5751 5749 5748 5745 5743 5742 5741 5740 5740 5737 5737 5735 5734 5732 5729 5725 5720 5719 5716 5712 5709 5707 5704 5703 5702 5699 5694 5692 5690 5689 5687 5686 5685 5683 5681 5680
5768 5766 5763 5759 5756 5753 5750 5749 5747 5746 5744 5742 5741 5739 5737 5736 5734 5733 5731 5730 5729 5727 5723 5719 5715 5711 5707 5704 5700 5698 5697 5694 5693 5689 5686 5683 5681 5680 5678 5677 5676 5674 5672
5766 5763 5761 5759 5756 5753 5749 5746 5744 5742 5741 5739 5737 5736 5734 5733 5731 5729 5728 5726 5724 5722 5719 5716 5711 5707 5703 5699 5695 5692 5690 5687 5686 5684 5681 5678 5675 5673 5672 5670 5668 5666 5664
5767 5762 5759 5756 5754 5752 5749 5745 5741 5740 5737 5735 5734 5733 5731 5729 5726 5724 5725 5723 5720 5718 5716 5712 5708 5704 5699 5694 5691 5688 5685 5682 5680 5678 5677 5675 5672 5669 5666 5663 5660 5658 5656
5763 5759 5755 5753 5751 5750 5745 5740 5738 5737 5734 5731 5729 5729 5728 5724 5721 5718 5716 5714 5713 5712 5710 5707 5704 5699 5695 5692 5688 5684 5681 5678 5675 5673 5671 5669 5667 5665 5662 5659 5653 5650 5647
5758 5754 5751 5748 5746 5742 5737 5733 5731 5732 5731 5727 5725 5724 5725 5724 5719 5717 5712 5708 5706 5703 5701 5700 5698 5695 5691 5688 5683 5679 5675 5673 5669 5667 5663 5661 5659 5657 5654 5650 5645 5641 5638
5754 5749 5745 5743 5740 5737 5731 5728 5726 5727 5727 5723 5721 5720 5718 5716 5714 5711 5709 5706 5703 5700 5696 5694 5692 5689 5686 5682 5677 5674 5670 5665 5661 5659 5656 5654 5652 5650 5648 5643 5637 5634 5630
5748 5744 5740 5736 5734 5731 5725 5722 5719 5722 5720 5718 5717 5715 5713 5710 5705 5701 5701 5699 5696 5693 5688 5684 5681 5679 5675 5672 5669 5667 5663 5660 5657 5654 5650 5648 5646 5644 5641 5638 5631 5626 5623
5741 5738 5735 5731 5729 5726 5720 5718 5714 5717 5715 5713 5711 5709 5704 5702 5697 5693 5694 5692 5688 5686 5684 5679 5674 5671 5668 5664 5660 5659 5658 5655 5653 5649 5645 5641 5640 5637 5634 5633 5628 5622 5616